• Processing (Info)

  • MPEC 2009-O16 : 2009 OC = 2006 TE1

    The following Minor Planet Electronic Circular may be linked-to from your own Web pages, but must not otherwise be redistributed electronically.

    A form allowing access to any MPEC is at the bottom of this page.


    Read MPEC 2009-O15 Read MPEC 2009-O17


    M.P.E.C. 2009-O16                                Issued 2009 July 19, 15:22 UT
    
         The Minor Planet Electronic Circulars contain information on unusual
             minor planets and routine data on comets.  They are published
       on behalf of Commission 20 of the International Astronomical Union by the
              Minor Planet Center, Smithsonian Astrophysical Observatory,
                              Cambridge, MA 02138, U.S.A.
    
                 Prepared using the Tamkin Foundation Computer Network
    
                                  MPC@CFA.HARVARD.EDU
              URL http://www.cfa.harvard.edu/iau/mpc.html  ISSN 1523-6714
    
                                  2009 OC = 2006 TE1
    
                               Revision to MPEC 2009-O04
    
    Additional Observations:
         K09O00C  C2009 07 19.04851 20 36 34.34 +06 01 41.2          17.9 C EO016B40
         K09O00C  C2009 07 19.06197 20 36 36.18 +06 01 50.0          18.5 C EO016B40
         K09O00C  C2009 07 19.08038 20 36 38.78 +06 02 01.1          18.6 C EO016B40
    
    Observer details:
    B40 Skylive Observatory, Catania.  Observers P. Camilleri, G. Sostero,
        E. Guido, E. Prosperi.  Measurer P. Camilleri.  0.30-m f/6.3 reflector
        + CCD.
    
    Orbital elements:
    2009 OC = 2006 TE1                                       Earth MOID = 0.1774 AU
    Epoch 2009 June 18.0 TT = JDT 2455000.5                 MPC
    M 344.09379              (2000.0)            P               Q
    n   0.31577877     Peri.  137.98410     +0.72628352     +0.68739246
    a   2.1357353      Node   178.58725     -0.64999330     +0.68769301
    e   0.4465533      Incl.    4.57202     -0.22365366     +0.23360208
    P   3.12           H   20.3           G   0.15           U   3
    Residuals in seconds of arc
    061003 G96  0.3+  0.1-    090717 B40  1.7+  0.3+    090717 F85  0.2-  0.0
    061003 G96  0.1-  0.3-    090717 H26  0.3+  0.0     090717 F85  0.0   0.1+
    061003 G96  0.1+  0.5-    090717 H26  0.5-  0.5+    090717 F85  0.1-  0.3-
    061003 G96  0.3-  0.3-    090717 H26  0.2+  0.5+    090717 F85  0.0   0.1+
    061004 J77  0.9-  0.4-    090717 I20  0.2-  0.4+    090717 E10  0.0   0.2-
    061004 J95  0.6+  0.6+    090717 I20  0.1-  0.2-    090717 E10  0.1+  0.2-
    061004 J77  0.1+  0.2+    090717 I20  0.1-  0.2-    090717 E10  0.0   0.1-
    061004 J95  0.6-  0.1-    090717 H10  0.7+  0.6+    090717 E10  0.1+  0.0
    061004 G96  0.0   0.3-    090717 H10  0.6+  0.3+    090718 H45  0.2-  0.2-
    061004 G96  0.3+  0.1+    090717 H10  0.7-  0.4-    090718 H45  0.1+  0.0
    061004 G96  0.0   0.5-    090717 I20  0.2-  0.1-    090718 H45  0.1+  0.0
    061004 G96  0.6+  0.2-    090717 H10  1.0-  0.3+    090718 H45  0.2-  0.0
    090716 J75  0.4-  0.3+    090717 H10  0.2-  0.3-    090718 H45  0.0   0.1-
    090716 J75  0.5-  0.0     090717 H01  0.1-  0.1+    090718 H45  0.1+  0.1-
    090716 J75  0.8-  0.7+    090717 H10  0.6-  0.6-    090718 H45  0.2-  0.2-
    090716 B40  1.2+  0.2+    090717 H10  0.7+  0.8-    090718 H45  0.0   0.2-
    090716 587  0.1+  0.4+    090717 H01  0.1-  0.1+    090718 A53  0.4-  0.6-
    090716 587  0.1+  0.4+    090717 H01  0.1-  0.1+    090719 A53  0.4-  0.3+
    090716 587  0.1+  0.1+    090717 H36  0.4-  1.6-    090719 A53  0.2-  0.0
    090716 B40  1.1+  0.4+    090717 H01  0.1-  0.1+    090719 J53  0.4+  0.2-
    090717 A81  0.2-  0.1+    090717 H01  0.1-  0.0     090719 J53  0.4+  0.4+
    090717 A81  0.2-  0.5-    090717 H36  0.1-  0.4-    090719 J53  1.1+  0.6+
    090717 B40  1.5+  0.3+    090717 H36  0.1-  0.4-    090719 B40  0.5+  0.2-
    090717 I19  0.2-  0.2-    090717 H36  0.5-  0.1+    090719 B40  0.4-  0.4+
    090717 B40 (2.3+  0.8-)   090717 H01  0.0   0.1+    090719 B40  0.6-  0.2+
    090717 I19  0.2-  0.3-    090717 H01  0.1-  0.1+
    090717 I19  0.2-  0.2-    090717 H01  0.1-  0.1+
    
    Ephemeris:
    2009 OC                  a,e,i = 2.14, 0.45, 5                   q = 1.1820
    Date    TT    R. A. (2000) Decl.     Delta      r     Elong.  Phase     V
    2009 07 18    20 33.90   +05 50.8    0.207    1.201   151.0    24.2    18.4
    2009 07 28    21 00.81   +07 04.0    0.189    1.187   152.8    23.0    18.2
    2009 08 07    21 29.92   +06 51.8    0.181    1.182   156.0    20.4    18.0
    2009 08 17    21 58.81   +05 14.0    0.182    1.186   161.0    16.1    17.8
    2009 08 27    22 24.88   +02 35.0    0.194    1.200   167.3    10.7    17.8
    2009 09 06    22 46.84   -00 21.3    0.216    1.222   173.1     5.6    17.9
    2009 09 16    23 04.54   -02 57.3    0.249    1.252   172.4     6.1    18.2
    2009 09 26    23 19.00   -04 50.5    0.294    1.290   165.8    11.0    18.9
    2009 10 06    23 31.65   -05 53.6    0.351    1.332   158.3    16.1    19.5
    2009 10 16    23 43.49   -06 11.5    0.421    1.380   150.9    20.6    20.1
    2009 10 26    23 55.30   -05 51.6    0.503    1.431   143.7    24.3    20.7
    2009 11 05    00 07.54   -05 02.5    0.598    1.485   136.9    27.1    21.3
    2009 11 15    00 20.34   -03 52.5    0.705    1.542   130.3    29.3    21.8
    
    Gareth V. Williams           (C) Copyright 2009 MPC           M.P.E.C. 2009-O16
    

    Read MPEC 2009-O15 Read MPEC 2009-O17


    MPEC number:

    Enter an MPEC number in one of the following forms:

    • 1997-B01 (the full form)
    • J97B01 (the packed version of the full form)
    • B01 (the abbreviated form)